Location: ?????
(55.8833°N, 37.6500°E)
Time: 18:42:25
(UTC+00:00)

STARLINK-23 - Pass Details

Date: 27 February 2020
Orbit: 529 x 530 km, 53.0° (Epoch: 05 April)

Event Time Altitude Azimuth Distance (km) Brightness Sun altitude
Rises 17:38:12 0° 274° (W) 2,672 8.4 -22.9°
Reaches altitude 10° 17:40:28 10° 269° (W) 1,781 7.1 -23.2°
Enters shadow 17:43:54 45° 217° (SW) 735 4.3 -23.7°
